TimeEST,TemperatureF,Dew PointF,Humidity,Sea Level PressureIn,VisibilityMPH,Wind Direction,Wind SpeedMPH,Gust SpeedMPH,PrecipitationIn,Events,Conditions,WindDirDegrees,DateUTC
12:53 AM,39.9,32.0,73,30.53,10.0,NE,5.8,-,N/A,,Clear,50,2013-11-05 05:53:00
1:53 AM,37.0,30.9,79,30.54,10.0,NE,6.9,-,N/A,,Clear,40,2013-11-05 06:53:00
2:53 AM,37.9,30.9,76,30.53,10.0,NE,8.1,-,N/A,,Clear,40,2013-11-05 07:53:00
3:23 AM,39.2,30.2,70,30.49,10.0,NNE,10.4,-,N/A,,Mostly Cloudy,20,2013-11-05 08:23:00
3:53 AM,39.9,30.9,70,30.53,10.0,NNE,10.4,-,N/A,,Overcast,20,2013-11-05 08:53:00
4:53 AM,41.0,30.9,67,30.55,10.0,NNE,8.1,-,N/A,,Overcast,20,2013-11-05 09:53:00
5:53 AM,41.0,32.0,70,30.55,10.0,NNE,10.4,-,N/A,,Overcast,20,2013-11-05 10:53:00
6:53 AM,42.1,33.1,70,30.54,10.0,NNE,9.2,-,N/A,,Overcast,20,2013-11-05 11:53:00
7:53 AM,43.0,34.0,71,30.56,10.0,NNE,9.2,-,N/A,,Mostly Cloudy,20,2013-11-05 12:53:00
8:53 AM,45.0,35.1,68,30.57,10.0,NNE,9.2,-,N/A,,Overcast,20,2013-11-05 13:53:00
9:13 AM,46.4,35.6,66,30.52,10.0,North,10.4,-,N/A,,Overcast,350,2013-11-05 14:13:00
9:53 AM,48.9,37.0,64,30.57,10.0,NNE,11.5,-,N/A,,Mostly Cloudy,30,2013-11-05 14:53:00
10:19 AM,50.0,37.4,62,30.52,10.0,NNE,9.2,-,N/A,,Mostly Cloudy,20,2013-11-05 15:19:00
10:53 AM,53.1,39.0,59,30.55,10.0,NNE,10.4,-,N/A,,Overcast,30,2013-11-05 15:53:00
11:53 AM,53.1,39.0,59,30.54,10.0,North,10.4,-,N/A,,Overcast,10,2013-11-05 16:53:00
12:53 PM,54.0,39.9,59,30.50,10.0,NNE,11.5,-,N/A,,Overcast,20,2013-11-05 17:53:00
1:53 PM,55.9,42.1,60,30.49,10.0,NE,6.9,-,N/A,,Overcast,40,2013-11-05 18:53:00
2:50 PM,57.2,42.8,59,30.44,10.0,NNE,8.1,-,N/A,,Scattered Clouds,30,2013-11-05 19:50:00
2:53 PM,57.9,43.0,58,30.48,10.0,NE,8.1,-,N/A,,Partly Cloudy,50,2013-11-05 19:53:00
3:13 PM,57.2,42.8,59,30.43,10.0,NNE,6.9,-,N/A,,Mostly Cloudy,30,2013-11-05 20:13:00
3:53 PM,57.0,44.1,62,30.47,10.0,NNE,9.2,-,N/A,,Overcast,30,2013-11-05 20:53:00
4:53 PM,55.9,45.0,67,30.47,10.0,ENE,5.8,-,N/A,,Overcast,60,2013-11-05 21:53:00
5:53 PM,55.0,46.0,72,30.47,10.0,NE,6.9,-,N/A,,Overcast,50,2013-11-05 22:53:00
6:53 PM,54.0,46.0,75,30.48,10.0,NE,6.9,-,N/A,,Overcast,50,2013-11-05 23:53:00
7:53 PM,53.1,46.9,80,30.48,10.0,NE,5.8,-,N/A,,Overcast,50,2013-11-06 00:53:00
8:53 PM,54.0,46.0,75,30.47,10.0,NE,9.2,-,N/A,,Overcast,40,2013-11-06 01:53:00
9:53 PM,54.0,46.0,75,30.47,10.0,NNE,9.2,-,N/A,,Overcast,30,2013-11-06 02:53:00
10:53 PM,53.1,46.0,77,30.46,10.0,NNE,9.2,-,N/A,,Overcast,30,2013-11-06 03:53:00
11:53 PM,53.1,46.9,80,30.45,10.0,NNE,9.2,-,N/A,,Overcast,20,2013-11-06 04:53:00